Voltar ao catálogo

AYAME 2

ECS-2

AtivoComunicaçõesHEO
NORAD 11715·PAYLOAD·🇯🇵 Japan

Lançado Feb 22, 1980 de Tanegashima Space Center

Loading…

Próximas Passagens (próximas 24 horas)

TLE

AtualizadoSource: Space-Track

Época: Sep 14, 2026, 09:30 UTC

1 11715U 80018A   26257.39645762 -.00000157  00000-0  00000-0 0  9990
2 11715   9.6302  30.7916 4373853 309.5573  16.8387  1.75493936236593

Acompanhe AYAME 2 em tempo real com AllMySat

Download on the App Store